Погода в Гюмри

Армения     40°47′06″N   43°50′30″E
темп.,
°C
ветер,
м/с
пор.,
м/с
влажн.,
%
обл.,
%
осадки,
мм/ч
давл.,
гПа
погр.,
м
14 апреля, ср
ср1401:00+4в0170100 0.2 101850
04:00+3ссз017698 0.4 101733
07:00+2с0078100 0.0 101816
10:00+7зюз24555 0.0 1017895
13:00+12ююз473298 0.0 10142910
16:00+13зюз8921100 0.1 10123441
19:00+11сз683145 0.0 1014548
22:00+7всв014639 0.0 101715
15 апреля, чт
чт1501:00+5ссв11515 0.0 101812
04:00+4ссв11552 0.0 101911
07:00+3ссв11585 0.0 102010
10:00+8з12435 0.0 1018658
13:00+13ююз243098 0.0 10152162
16:00+15ю3426100 0.0 10132605
19:00+11св2243100 0.0 1015572
22:00+9ссв345676 0.0 101684
16 апреля, пт
пт1601:00+7ссв225913 0.0 101620
04:00+6ссв22625 0.0 101715
07:00+5ссв116312 0.0 101812
10:00+10з114565 0.0 1017655
13:00+15ююз453467 0.0 10152330
16:00+16ююз4731100 0.2 10132495
19:00+12в334969 0.2 1015202
22:00+8ссв336648 0.2 101863
17 апреля, сб
сб1701:00+7св22739 0.0 101934
04:00+6ссв11725 0.0 101912
07:00+6ссв1171100 0.0 102014
10:00+11зюз125287 0.0 1018571
13:00+16ю253876 0.0 10161920
16:00+15всв2348100 0.2 10161106
19:00+14св3458100 0.6 1017232
22:00+11всв337198 0.6 101942
18 апреля, вс
вс1801:00+10ссв2276100 0.3 101824
04:00+10ссз0176100 0.4 101711
07:00+9сз1177100 0.0 101915
10:00+14зюз2454100 0.0 1018810
13:00+18зсз563998 0.1 10162099
16:00+18сз8938100 0.1 10141709
19:00+16зсз4741100 0.0 1017194
22:00+13ссв1154100 0.0 101912